Home   Weather   Wamsutter   Past weeks
Flag for USA

Past Weather in Wamsutter, Wyoming, USA — Yesterday and Last 2 Weeks

Now
61 °F

Broken clouds.


Feels Like: 61 °F
Forecast: 66 / 48 °F
Wind: 12 mph from Southwest

Location: Rawlins Municipal

Current Time: Jun 18, 2019 at 11:33:19 am

Latest Report: Jun 18, 2019 at 10:53 am


Visibility: 10 mi

Pressure: 29.94 "Hg (23.46 "Hg at 2064m altitude)

Humidity: 65%

Dew Point: 49 °F

Location of WamsutterLocation

Past Weather in Wamsutter — Graph

°F

Wamsutter Temperature Yesterday

Maximum temperature yesterday: 69 °F (at 12:07 pm)
Minimum temperature yesterday: 48 °F (at 3:53 am)
Average temperature yesterday: 56 °F

High & Low Weather Summary for the Past Weeks

 TemperatureHumidityPressure
High78 °F (Jun 6, 3:53 pm)90% (Jun 18, 3:53 am)30.43 "Hg (Jun 18, 3:53 am)
Low29 °F (Jun 10, 5:53 am)13% (Jun 9, 4:53 pm)29.57 "Hg (Jun 7, 6:53 pm)
Average58 °F51%29.97 "Hg
* Reported Jun 3 9:53 am — Jun 18 9:53 am, Wamsutter. Weather by CustomWeather, © 2019

Note: Actual official high and low records may vary slightly from our data, if they occured in-between our weather recording intervals... More about our weather records

Advertising

Wamsutter Weather History for the Previous 24 Hours

Scroll right to see more
 ConditionsComfort  
Time TempWeatherWind HumidityBarometerVisibility
9:53 am
Tue, Jun 18
57 °FOvercast.10 mph74%29.97 "Hg10 mi
9:28 am58 °FLight rain. Cloudy.13 mph72%30.18 "Hg10 mi
9:20 am58 °FBroken clouds.13 mph72%30.18 "Hg10 mi
8:53 am57 °FScattered clouds.7 mph74%29.98 "Hg10 mi
7:53 am54 °FPartly sunny.3 mph80%29.99 "Hg10 mi
6:53 am51 °FPartly sunny.3 mph89%29.98 "Hg10 mi
5:53 am51 °FOvercast.5 mph89%29.99 "Hg10 mi
5:25 am51 °FMostly cloudy.No wind89%30.16 "Hg10 mi
4:53 am51 °FMostly cloudy.No wind89%29.98 "Hg10 mi
3:53 am49 °FPassing clouds.No wind90%29.96 "Hg10 mi
2:53 am51 °FOvercast.3 mph89%29.96 "Hg10 mi
1:53 am50 °FPassing clouds.5 mph86%29.97 "Hg10 mi
12:53 am51 °FMostly cloudy.3 mph80%29.95 "Hg10 mi
11:53 pm
Mon, Jun 17
51 °FPartly cloudy.13 mph86%29.97 "Hg10 mi
10:53 pm52 °FOvercast.12 mph83%29.98 "Hg10 mi
10:24 pm53 °FMostly cloudy.8 mph83%30.21 "Hg10 mi
9:53 pm54 °FMostly cloudy.5 mph80%29.99 "Hg10 mi
8:53 pm54 °FClear.No wind83%29.97 "Hg10 mi
7:53 pm56 °FSunny.No wind77%29.95 "Hg10 mi
6:53 pm56 °FPartly sunny.5 mph77%29.96 "Hg10 mi
5:53 pm53 °FLight rain. Overcast.9 mph86%30.01 "Hg10 mi
5:37 pm54 °FLight rain. Overcast.9 mph83%30.17 "Hg10 mi
5:19 pm55 °FThundershowers. Overcast.3 mph72%30.16 "Hg10 mi
5:10 pm54 °FLight rain. Overcast.No wind77%30.15 "Hg10 mi
4:53 pm54 °FThundershowers. Overcast.14 mph80%29.98 "Hg10 mi
4:34 pm54 °FLight rain. Overcast.21 mph77%30.14 "Hg4 mi
4:11 pm56 °FThunderstorms. Overcast.8 mph81%30.15 "Hg6 mi
3:41 pm57 °FHeavy rain. Cloudy.3 mph78%30.13 "Hg2 mi
3:21 pm58 °FThundershowers. Mostly cloudy.5 mph78%30.13 "Hg10 mi
2:53 pm59 °FLight rain. Overcast.5 mph69%29.93 "Hg10 mi
1:53 pm61 °FMostly cloudy.15 mph54%29.93 "Hg10 mi
1:33 pm65 °FThundershowers. Overcast.15 mph49%30.14 "Hg10 mi
12:53 pm68 °FPartly sunny.9 mph42%29.90 "Hg10 mi
12:22 pm68 °FBroken clouds.13 mph42%30.16 "Hg10 mi
12:07 pm69 °FThundershowers. Scattered clouds.9 mph42%30.16 "Hg10 mi
11:53 am66 °FPassing clouds.5 mph47%29.93 "Hg10 mi
Weather by CustomWeather, © 2019

See weather overview